time_stamp(utc),avg(mph),gust(mph),direction(deg),12m_air_temp(f),sonic_u(cm/s),sonic_v(cm/s),sonic_w(cm/s),pressure,2m_air_temp(f),pyranometer(W/m^2)
"2020-11-10 00:02:39+00",8.0,9.0,,59.6,-236,-262,1,1025.5,57.7,0
"2020-11-10 00:07:39+00",8.6,9.6,,59.7,-247,-300,-3,1025.48,57.8,0
"2020-11-10 00:12:39+00",8.9,10.9,,59.6,-262,-313,5,1025.39,57.9,0
"2020-11-10 00:17:39+00",9.7,11.7,,59.7,-297,-327,7,1025.46,58.2,0
"2020-11-10 00:22:39+00",10.0,12.0,,59.8,-302,-331,10,1025.39,58.3,0
"2020-11-10 00:27:39+00",9.7,11.7,,59.8,-287,-320,9,1025.31,58.4,0
"2020-11-10 00:32:39+00",10.1,12.1,,59.7,-299,-321,9,1025.4,58.5,0
"2020-11-10 00:37:39+00",9.8,10.8,,59.6,-290,-322,3,1025.24,58.5,0
"2020-11-10 00:42:39+00",9.9,10.9,,59.5,-306,-313,1,1025.34,58.4,0
"2020-11-10 00:47:39+00",10.3,11.3,,59.6,-306,-342,2,1025.39,58.4,0
"2020-11-10 00:52:39+00",10.6,11.6,,59.5,-315,-344,3,1025.32,58.3,0
"2020-11-10 00:57:39+00",10.6,11.6,,59.4,-315,-337,3,1025.36,58.2,0
"2020-11-10 01:02:39+00",9.9,10.9,,59.4,-290,-326,-3,1025.29,58.1,0
"2020-11-10 01:07:39+00",9.3,11.3,,59.2,-271,-317,-2,1025.37,58,0
"2020-11-10 01:12:39+00",9.8,10.8,,59.1,-289,-332,-3,1025.39,58,0
"2020-11-10 01:17:39+00",10.3,12.3,,59.2,-292,-365,1,1025.34,58.1,0
"2020-11-10 01:22:39+00",9.7,10.7,,59.3,-280,-344,1,1025.47,58.2,0
"2020-11-10 01:27:39+00",8.8,10.8,,59.2,-236,-324,8,1025.33,58.2,0
"2020-11-10 01:32:39+00",10.0,12.0,,59.3,-274,-353,-1,1025.34,58.2,0
"2020-11-10 01:37:39+00",8.9,9.9,,59.2,-246,-323,4,1025.25,58.2,0
"2020-11-10 01:42:39+00",9.0,10.0,,59.1,-245,-338,-4,1025.27,58.1,0
"2020-11-10 01:47:39+00",9.3,10.3,,59.1,-245,-358,0,1025.19,58,0
"2020-11-10 01:52:39+00",9.0,10.0,,59.2,-239,-340,-1,1025.19,57.9,0
"2020-11-10 01:57:39+00",8.8,9.8,,59.1,-217,-338,-5,1025.21,57.8,0
"2020-11-10 02:02:39+00",8.9,9.9,,59,-230,-338,0,1025.24,57.7,0
"2020-11-10 02:07:39+00",8.8,9.8,,59,-222,-335,-7,1025.28,57.7,0
"2020-11-10 02:12:39+00",8.9,9.9,,59.1,-235,-338,-6,1025.24,57.7,0
"2020-11-10 02:17:39+00",8.9,9.9,,59.1,-231,-337,-1,1025.29,57.6,0
"2020-11-10 02:22:39+00",8.3,9.3,,59,-231,-303,1,1025.2,57.5,0
"2020-11-10 02:27:39+00",9.6,10.6,,59,-263,-358,-4,1025.26,57.4,0
"2020-11-10 02:32:39+00",9.8,10.8,,59.1,-273,-361,2,1025.27,57.4,0
"2020-11-10 02:37:39+00",10.1,12.1,,59.1,-296,-342,0,1025.17,57.4,0
"2020-11-10 02:42:39+00",10.0,11.0,,59.1,-292,-349,3,1025.08,57.5,0
"2020-11-10 02:47:39+00",10.0,11.0,,59.3,-296,-322,-3,1025.11,57.6,0
"2020-11-10 02:52:39+00",10.6,11.6,,59.2,-316,-337,-9,1025.22,57.6,0
"2020-11-10 02:57:39+00",10.1,12.1,,59.1,-306,-330,-2,1025.2,57.6,0
"2020-11-10 03:02:39+00",10.3,11.3,,59.1,-313,-326,-6,1025.2,57.7,0
"2020-11-10 03:07:39+00",10.7,11.7,,59.2,-325,-329,-3,1025.14,57.8,0
"2020-11-10 03:12:39+00",9.6,10.6,,59.2,-281,-309,-1,1025.11,57.8,0
"2020-11-10 03:17:39+00",8.5,10.5,,59,-274,-251,8,1025.11,57.8,0
"2020-11-10 03:22:39+00",8.7,9.7,,58.9,-270,-270,2,1024.96,57.7,0
"2020-11-10 03:27:39+00",9.8,10.8,,59,-309,-293,-6,1024.9,57.7,0
"2020-11-10 03:32:39+00",9.4,10.4,,58.9,-286,-294,-6,1024.89,57.6,0
"2020-11-10 03:37:39+00",9.5,11.5,,58.8,-292,-308,0,1024.85,57.6,0
"2020-11-10 03:42:39+00",9.4,10.4,,58.9,-276,-316,-2,1024.88,57.5,0
"2020-11-10 03:47:39+00",9.2,10.2,,58.9,-288,-282,-1,1024.82,57.5,0
"2020-11-10 03:52:39+00",9.1,10.1,,58.9,-281,-282,2,1024.8,57.4,0
"2020-11-10 03:57:39+00",10.1,11.1,,59,-305,-307,-1,1024.7,57.2,0
"2020-11-10 04:02:39+00",9.8,9.8,,59.1,-311,-291,0,1024.7,57.1,0
"2020-11-10 04:07:39+00",9.1,10.1,,59,-299,-260,-1,1024.76,56.9,0
"2020-11-10 04:12:39+00",8.6,9.6,,58.9,-289,-239,4,1024.74,56.7,0
"2020-11-10 04:17:39+00",8.1,8.1,,58.8,-266,-231,0,1024.77,56.4,0
"2020-11-10 04:22:39+00",8.3,9.3,,58.8,-250,-256,-3,1024.8,56.4,0
"2020-11-10 04:27:39+00",8.4,8.4,,58.8,-250,-257,-3,1024.82,56.4,0
"2020-11-10 04:32:39+00",8.1,9.1,,58.8,-245,-245,-4,1024.85,56.2,0
"2020-11-10 04:37:39+00",7.3,8.3,,58.7,-228,-217,-3,1024.85,56.2,0
"2020-11-10 04:42:39+00",6.3,7.3,,58.5,-227,-166,1,1024.9,56,0
"2020-11-10 04:47:39+00",5.9,6.9,,58.3,-246,-150,1,1024.92,55.8,0
"2020-11-10 04:52:39+00",7.6,7.6,,58.5,-254,-212,-4,1024.92,55.7,0
"2020-11-10 04:57:39+00",7.6,8.6,,58.6,-252,-215,-4,1025,56,0
"2020-11-10 05:02:39+00",7.2,8.2,,58.6,-235,-206,-1,1024.91,56,0
"2020-11-10 05:07:39+00",7.6,8.6,,58.5,-251,-212,-3,1024.83,55.9,0
"2020-11-10 05:12:39+00",7.5,8.5,,58.5,-244,-215,-2,1024.68,55.8,0
"2020-11-10 05:17:39+00",7.3,8.3,,58.5,-221,-222,-5,1024.64,55.9,0
"2020-11-10 05:22:39+00",7.3,8.3,,58.5,-211,-234,-3,1024.67,55.8,0
"2020-11-10 05:27:39+00",7.0,7.0,,58.6,-215,-206,-5,1024.58,55.6,0
"2020-11-10 05:32:39+00",6.9,7.9,,58.5,-209,-204,-5,1024.55,55.5,0
"2020-11-10 05:37:39+00",6.3,7.3,,58.4,-189,-229,-3,1024.59,55.6,0
"2020-11-10 05:42:39+00",7.5,8.5,,58.5,-217,-261,-3,1024.57,55.6,0
"2020-11-10 05:47:39+00",7.0,7.0,,58.5,-198,-261,-2,1024.51,55.6,0
"2020-11-10 05:52:39+00",6.8,7.8,,58.3,-203,-248,-1,1024.52,55.5,0
"2020-11-10 05:57:39+00",6.2,6.2,,58.1,-179,-236,0,1024.45,55.4,0
"2020-11-10 06:02:39+00",6.4,6.4,,58.1,-188,-193,-1,1024.38,55.4,0
"2020-11-10 06:07:39+00",5.4,5.4,,58.1,-167,-208,-1,1024.31,55.3,0
"2020-11-10 06:12:39+00",5.9,6.9,,58,-173,-198,-1,1024.34,55.3,0
"2020-11-10 06:17:39+00",6.8,6.8,,57.9,-200,-201,0,1024.36,55.3,0
"2020-11-10 06:22:39+00",6.1,6.1,,57.9,-212,-164,3,1024.35,55.4,0
"2020-11-10 06:27:39+00",5.6,6.6,,58,-233,-121,-1,1024.44,55.3,0
"2020-11-10 06:32:39+00",5.5,6.5,,58.1,-221,-113,1,1024.42,55.2,0
"2020-11-10 06:37:39+00",5.5,6.5,,57.9,-219,-75,3,1024.37,55,0
"2020-11-10 06:42:39+00",4.8,4.8,,58,-206,-115,0,1024.33,55.1,0
"2020-11-10 06:47:39+00",5.3,5.3,,57.9,-210,-99,-1,1024.28,55,0
"2020-11-10 06:52:39+00",4.9,4.9,,57.8,-204,-106,1,1024.35,54.9,0
"2020-11-10 06:57:39+00",5.4,5.4,,57.8,-205,-87,4,1024.41,55,0
"2020-11-10 07:02:39+00",5.3,5.3,,57.8,-199,-87,-2,1024.47,54.9,0
"2020-11-10 07:07:39+00",5.2,5.2,,57.8,-186,-130,1,1024.43,54.9,0
"2020-11-10 07:12:39+00",5.3,5.3,,57.9,-181,-140,5,1024.49,55,0
"2020-11-10 07:17:39+00",5.3,5.3,,58,-172,-152,2,1024.4,55,0
"2020-11-10 07:22:39+00",5.7,5.7,,58,-170,-170,5,1024.45,55,0
"2020-11-10 07:27:39+00",5.7,5.7,,58,-174,-165,-1,1024.48,55,0
"2020-11-10 07:32:39+00",4.7,4.7,,58,-144,-177,2,1024.41,55.2,0
"2020-11-10 07:37:39+00",5.2,5.2,,58,-149,-201,-2,1024.4,55.1,0
"2020-11-10 07:42:39+00",6.8,7.8,,58.1,-193,-216,2,1024.41,55,0
"2020-11-10 07:47:39+00",6.0,7.0,,58.2,-156,-220,2,1024.49,54.9,0
"2020-11-10 07:52:39+00",5.8,5.8,,58,-91,-226,-5,1024.38,54.8,0
"2020-11-10 07:57:39+00",6.9,6.9,,58.1,-159,-264,-4,1024.34,55.2,0
"2020-11-10 08:02:39+00",7.5,7.5,,58.3,-170,-287,-6,1024.27,55,0
"2020-11-10 08:07:39+00",7.2,7.2,,58.5,-198,-275,-2,1024.24,54.9,0
"2020-11-10 08:12:39+00",6.5,7.5,,58.3,-121,-255,-6,1024.2,55,0
"2020-11-10 08:17:39+00",5.7,5.7,,58,-130,-216,-7,1024.1,55.1,0
"2020-11-10 08:22:39+00",5.6,6.6,,57.8,-158,-207,-1,1024,55.1,0
"2020-11-10 08:27:39+00",6.8,7.8,,57.6,-195,-211,-3,1024.06,54.9,0
"2020-11-10 08:32:39+00",7.0,7.0,,57.6,-205,-204,-3,1024.09,54.6,0
"2020-11-10 08:37:39+00",6.9,6.9,,57.9,-212,-202,-1,1024.07,54.4,0
"2020-11-10 08:42:39+00",7.0,7.0,,57.9,-216,-204,-1,1024.11,54.3,0
"2020-11-10 08:47:39+00",6.2,6.2,,57.8,-202,-181,-2,1024.09,54.4,0
"2020-11-10 08:52:39+00",5.6,6.6,,57.8,-184,-156,-2,1023.99,54.2,0
"2020-11-10 08:57:39+00",5.6,6.6,,57.7,-191,-150,-2,1024.07,54.1,0
"2020-11-10 09:02:39+00",6.1,6.1,,57.8,-178,-177,-2,1024.1,54.1,0
"2020-11-10 09:07:39+00",6.7,6.7,,58,-212,-191,-1,1024.1,54.2,0
"2020-11-10 09:12:39+00",6.7,6.7,,58.2,-232,-182,2,1024.18,54.2,0
"2020-11-10 09:17:39+00",7.0,8.0,,58.3,-226,-199,-1,1024.23,54.3,0
"2020-11-10 09:22:39+00",7.0,7.0,,58.2,-240,-189,-1,1024.23,54.3,0
"2020-11-10 09:27:39+00",6.7,6.7,,58.1,-241,-175,5,1024.31,54.1,0
"2020-11-10 09:32:39+00",5.5,6.5,,58,-228,-132,2,1024.36,54,0
"2020-11-10 09:37:39+00",5.4,6.4,,57.9,-233,-126,-1,1024.34,53.9,0
"2020-11-10 09:42:39+00",5.0,6.0,,57.8,-193,-126,4,1024.29,53.8,0
"2020-11-10 09:47:39+00",5.3,5.3,,57.7,-203,-133,2,1024.27,53.7,0
"2020-11-10 09:52:39+00",5.0,6.0,,57.6,-191,-122,1,1024.25,53.5,0
"2020-11-10 09:57:39+00",5.6,6.6,,57.6,-225,-113,1,1024.2,53.5,0
"2020-11-10 10:02:39+00",5.8,5.8,,57.6,-231,-115,6,1024.16,53.7,0
"2020-11-10 10:07:39+00",5.3,5.3,,57.6,-228,-127,7,1024.19,54,0
"2020-11-10 10:12:39+00",5.5,7.5,,57.7,-228,-132,6,1024.23,54.4,0
"2020-11-10 10:17:39+00",5.2,5.2,,57.7,-219,-125,7,1024.14,54.4,0
"2020-11-10 10:22:39+00",5.5,6.5,,57.8,-227,-115,4,1024.18,54.4,0
"2020-11-10 10:27:39+00",5.3,5.3,,57.7,-222,-46,2,1024.17,54.5,0
"2020-11-10 10:32:39+00",4.2,5.2,,57,-183,19,3,1024.22,54.2,0
"2020-11-10 10:37:39+00",4.7,4.7,,56.7,-202,55,7,1024.25,53.9,0
"2020-11-10 10:42:39+00",4.7,4.7,,56.6,-208,31,6,1024.32,53.8,0
"2020-11-10 10:47:39+00",4.4,4.4,,56.5,-182,66,8,1024.38,53.7,0
"2020-11-10 10:52:39+00",4.0,4.0,,56.4,-163,70,8,1024.32,53.6,0
"2020-11-10 10:57:39+00",3.3,4.3,,56.3,-122,68,1,1024.27,53.5,0
"2020-11-10 11:02:39+00",3.5,3.5,,56.1,-130,73,-2,1024.32,53,0
"2020-11-10 11:07:39+00",2.9,2.9,,55.8,-90,78,-2,1024.39,52.6,0
"2020-11-10 11:12:39+00",2.6,2.6,,55.7,-73,75,4,1024.4,52.1,0
"2020-11-10 11:17:39+00",2.3,2.3,,55.6,-60,68,2,1024.42,51.9,0
"2020-11-10 11:22:39+00",2.4,2.4,,55.5,-79,55,-4,1024.42,51.8,0
"2020-11-10 11:27:39+00",2.0,2.0,,55.6,-78,23,-4,1024.39,51.7,0
"2020-11-10 11:32:39+00",2.4,2.4,,55.7,-101,-9,-7,1024.41,51.7,0
"2020-11-10 11:37:39+00",2.6,2.6,,55.9,-109,-3,-4,1024.45,51.7,0
"2020-11-10 11:42:39+00",3.1,3.1,,56,-129,0,-6,1024.42,51.5,0
"2020-11-10 11:47:39+00",3.5,3.5,,56.1,-126,-52,-5,1024.46,51.4,0
"2020-11-10 11:52:39+00",4.0,4.0,,56.2,-147,-56,-5,1024.42,51.5,0
"2020-11-10 11:57:39+00",3.8,3.8,,56.3,-163,-89,-5,1024.34,51.6,0
"2020-11-10 12:02:39+00",4.7,4.7,,56.6,-150,-127,-6,1024.27,52,0
"2020-11-10 12:07:39+00",4.4,4.4,,56.7,-138,-122,-3,1024.31,52.4,0
"2020-11-10 12:12:39+00",3.5,3.5,,56.7,-110,-136,2,1024.29,52.9,0
"2020-11-10 12:17:39+00",3.6,3.6,,56.7,-112,-137,1,1024.29,53.2,0
"2020-11-10 12:22:39+00",4.4,4.4,,56.7,-67,-170,-2,1024.32,53.6,0
"2020-11-10 12:27:39+00",4.9,4.9,,56.8,-81,-190,-2,1024.41,54.4,0
"2020-11-10 12:32:39+00",4.1,5.1,,57.2,-7,-168,-10,1024.37,55.1,0
"2020-11-10 12:37:39+00",3.0,4.0,,57.5,-15,-113,3,1024.32,56.1,0
"2020-11-10 12:42:39+00",4.3,5.3,,57.7,-17,-173,-12,1024.31,56.5,0
"2020-11-10 12:47:39+00",4.5,5.5,,57.9,-28,-188,-5,1024.24,57,0
"2020-11-10 12:52:39+00",5.1,6.1,,58.1,-55,-205,-3,1024.19,57.4,0
"2020-11-10 12:57:39+00",5.0,6.0,,58.4,-42,-202,-2,1024.19,58.1,0
"2020-11-10 13:02:39+00",4.2,5.2,,58.9,17,-178,-3,1024.12,58.8,0
"2020-11-10 13:07:39+00",3.3,5.3,,59.2,-8,-132,3,1023.98,59,0
"2020-11-10 13:12:39+00",4.8,6.8,,59.6,18,-190,-14,1024.01,59.7,0
"2020-11-10 13:17:39+00",4.3,5.3,,59.8,18,-174,-5,1024.01,60.1,0
"2020-11-10 13:22:39+00",3.4,4.4,,60.3,16,-137,7,1023.97,60.7,0
"2020-11-10 13:27:39+00",3.3,4.3,,60.9,-47,-122,-15,1024.03,61.5,0
"2020-11-10 13:32:39+00",3.0,4.0,,61.1,-89,-84,0,1023.99,62.4,0
"2020-11-10 13:37:39+00",4.2,6.2,,61.4,-138,-129,17,1023.9,63.5,0
"2020-11-10 13:42:39+00",3.8,3.8,,61.6,-136,-82,16,1023.87,64.6,0
"2020-11-10 13:47:39+00",5.3,7.3,,61.9,-92,-212,11,1023.84,64.7,0
"2020-11-10 13:52:39+00",6.0,7.0,,61.9,-147,-229,-1,1023.79,65.1,0
"2020-11-10 13:57:39+00",6.1,8.1,,61.9,-205,-171,1,1023.78,65.1,0
"2020-11-10 14:02:39+00",6.9,7.9,,62,-270,-166,5,1023.71,65.8,0
"2020-11-10 14:07:39+00",6.3,7.3,,62.2,-248,-133,11,1023.65,66.7,0
"2020-11-10 14:12:39+00",8.8,9.8,,62.7,-256,-295,-3,1023.49,67.1,0
"2020-11-10 14:17:39+00",6.7,7.7,,63,-209,-212,37,1023.55,66.9,0
"2020-11-10 14:22:39+00",8.1,10.1,,63.5,-183,-308,-23,1023.56,66.9,0
"2020-11-10 14:27:39+00",8.3,10.3,,64.5,-218,-306,21,1023.53,66.8,0
"2020-11-10 14:32:39+00",8.9,10.9,,64.9,-238,-307,1,1023.61,67,0
"2020-11-10 14:37:39+00",8.9,11.9,,65.2,-233,-331,20,1023.56,67.2,0
"2020-11-10 14:42:39+00",11.1,13.1,,65.2,-268,-437,6,1023.52,67.3,0
"2020-11-10 14:47:39+00",11.8,13.8,,65.8,-235,-480,0,1023.47,67.7,0
"2020-11-10 14:52:39+00",10.5,11.5,,66.3,-206,-424,14,1023.52,67.9,0
"2020-11-10 14:57:39+00",10.7,11.7,,66.7,-218,-433,10,1023.49,68.6,0
"2020-11-10 15:02:39+00",11.1,12.1,,67,-228,-449,43,1023.52,68.9,0
"2020-11-10 15:07:39+00",11.6,12.6,,66.6,-351,-377,-1,1023.53,69.1,0
"2020-11-10 15:12:39+00",14.4,16.4,,66.2,-432,-466,-10,1023.47,69.1,0
"2020-11-10 15:17:39+00",13.1,16.1,,66.5,-415,-414,34,1023.44,69.1,0
"2020-11-10 15:22:39+00",13.8,15.8,,66.9,-445,-416,-6,1023.4,69.5,0
"2020-11-10 15:27:39+00",13.7,15.7,,66.9,-392,-474,6,1023.46,69.6,0
"2020-11-10 15:32:39+00",11.8,13.8,,67.2,-382,-373,36,1023.5,69.8,0
"2020-11-10 15:37:39+00",11.5,15.5,,67.4,-372,-373,47,1023.37,70.2,0
"2020-11-10 15:42:39+00",13.4,16.4,,67.3,-409,-475,-11,1023.37,70.5,0
"2020-11-10 15:47:39+00",15.5,16.5,,67.5,-458,-490,-14,1023.28,70.4,0
"2020-11-10 15:52:39+00",15.6,18.6,,67.5,-478,-492,-14,1023.24,70.2,0
"2020-11-10 15:57:39+00",14.6,17.6,,67.8,-488,-438,15,1023.19,70.3,0
"2020-11-10 16:02:39+00",11.7,14.7,,67.7,-372,-365,32,1023.06,70.5,0
"2020-11-10 16:07:39+00",13.9,16.9,,68,-412,-458,37,1023.02,70.6,0
"2020-11-10 16:12:39+00",14.2,17.2,,68,-428,-446,15,1022.92,70.7,0
"2020-11-10 16:17:39+00",14.0,17.0,,68,-421,-473,20,1022.85,70.8,0
"2020-11-10 16:22:39+00",15.3,18.3,,68.1,-404,-571,10,1022.8,70.6,0
"2020-11-10 16:27:39+00",12.4,14.4,,68.5,-316,-481,-1,1022.76,70.7,0
"2020-11-10 16:32:39+00",13.3,16.3,,69,-355,-516,29,1022.65,71.2,0
"2020-11-10 16:37:39+00",14.5,17.5,,69,-385,-556,26,1022.6,71.1,0
"2020-11-10 16:42:39+00",14.4,16.4,,68.8,-362,-538,-6,1022.58,71.1,0
"2020-11-10 16:47:39+00",14.2,18.2,,69.4,-323,-569,39,1022.47,71.3,0
"2020-11-10 16:52:39+00",16.3,19.3,,69.2,-376,-644,-3,1022.37,71.2,0
"2020-11-10 16:57:39+00",15.2,17.2,,69.5,-350,-597,2,1022.26,71.2,0
"2020-11-10 17:02:39+00",14.0,16.0,,69.7,-339,-562,7,1022.18,71.5,0
"2020-11-10 17:07:39+00",15.1,17.1,,69.7,-413,-543,-1,1022.21,71.8,0
"2020-11-10 17:12:39+00",15.6,18.6,,69.8,-445,-552,-15,1022.03,72.1,0
"2020-11-10 17:17:39+00",12.6,14.6,,69.5,-358,-433,17,1021.97,71.5,0
"2020-11-10 17:22:39+00",16.2,18.2,,69.5,-387,-650,8,1021.92,70.8,0
"2020-11-10 17:27:39+00",16.0,19.0,,69.3,-334,-660,-2,1021.83,70.5,0
"2020-11-10 17:32:39+00",16.1,19.1,,69.6,-353,-630,6,1021.76,70.7,0
"2020-11-10 17:37:39+00",14.9,17.9,,69.8,-371,-587,12,1021.68,71,0
"2020-11-10 17:42:39+00",15.2,17.2,,70,-436,-535,-6,1021.61,70.9,0
"2020-11-10 17:47:39+00",15.4,19.4,,69.9,-356,-628,-9,1021.63,70.8,0
"2020-11-10 17:52:39+00",13.6,16.6,,70,-361,-496,7,1021.58,70.8,0
"2020-11-10 17:57:39+00",12.8,14.8,,69.3,-281,-514,16,1021.62,70.2,0
"2020-11-10 18:02:39+00",12.4,14.4,,69,-315,-481,-14,1021.58,69.8,0
"2020-11-10 18:07:39+00",10.6,13.6,,69.2,-258,-422,11,1021.46,70,0
"2020-11-10 18:12:39+00",11.6,14.6,,69.1,-294,-458,36,1021.4,69.9,0
"2020-11-10 18:17:39+00",14.1,18.1,,69.3,-377,-540,20,1021.29,69.8,0
"2020-11-10 18:22:39+00",14.0,18.0,,69.8,-341,-560,-1,1021.21,70.5,0
"2020-11-10 18:27:39+00",14.1,16.1,,70.6,-325,-565,17,1021.23,71.5,0
"2020-11-10 18:32:39+00",13.8,16.8,,70.4,-402,-483,9,1021.16,71.8,0
"2020-11-10 18:37:39+00",12.6,14.6,,69.5,-345,-460,5,1021.14,71,0
"2020-11-10 18:42:39+00",12.6,15.6,,69.5,-333,-496,33,1021.08,70.5,0
"2020-11-10 18:47:39+00",11.9,13.9,,69.5,-302,-450,8,1021.09,70.5,0
"2020-11-10 18:52:39+00",16.1,20.1,,70.3,-301,-643,-3,1020.92,71.3,0
"2020-11-10 18:57:39+00",15.1,18.1,,71,-282,-639,5,1020.8,71.9,0
"2020-11-10 19:02:39+00",13.1,15.1,,70.7,-276,-531,7,1020.77,71.8,0
"2020-11-10 19:07:39+00",14.2,17.2,,70.1,-302,-563,-4,1020.79,71.1,0
"2020-11-10 19:12:39+00",13.6,17.6,,70.4,-311,-549,9,1020.7,71.3,0
"2020-11-10 19:17:39+00",15.5,19.5,,70.5,-385,-594,1,1020.63,71.7,0
"2020-11-10 19:22:39+00",16.3,18.3,,70.5,-406,-629,13,1020.58,71.6,0
"2020-11-10 19:27:39+00",14.5,17.5,,70.6,-375,-560,40,1020.57,71.7,0
"2020-11-10 19:32:39+00",14.3,16.3,,70,-394,-521,-5,1020.59,71,0
"2020-11-10 19:37:39+00",13.4,18.4,,70.2,-306,-508,18,1020.59,70.9,0
"2020-11-10 19:42:39+00",15.3,17.3,,70.3,-371,-593,-1,1020.54,71.2,0
"2020-11-10 19:47:39+00",13.9,14.9,,70.2,-319,-548,-1,1020.5,71.1,0
"2020-11-10 19:52:39+00",16.1,18.1,,70.3,-373,-627,-1,1020.53,71.1,0
"2020-11-10 19:57:39+00",15.6,18.6,,69.9,-347,-606,0,1020.45,70.9,0
"2020-11-10 20:02:39+00",11.4,13.4,,69.8,-224,-465,19,1020.56,70.7,0
"2020-11-10 20:07:39+00",12.7,16.7,,69.6,-202,-518,15,1020.53,70.3,0
"2020-11-10 20:12:39+00",13.2,15.2,,69.5,-169,-551,-11,1020.6,70.2,0
"2020-11-10 20:17:39+00",14.2,17.2,,69.3,-166,-588,-4,1020.6,69.8,0
"2020-11-10 20:22:39+00",13.9,16.9,,68.9,-191,-589,-4,1020.71,69.5,0
"2020-11-10 20:27:39+00",13.7,16.7,,68.5,-174,-578,-12,1020.69,69,0
"2020-11-10 20:32:39+00",13.0,15.0,,68.2,-211,-525,1,1020.78,68.7,0
"2020-11-10 20:37:39+00",13.9,16.9,,68,-181,-584,-8,1020.79,68.5,0
"2020-11-10 20:42:39+00",10.7,12.7,,67.9,-127,-446,5,1020.87,68.2,0
"2020-11-10 20:47:39+00",13.2,16.2,,67.5,-224,-544,-2,1020.8,67.9,0
"2020-11-10 20:52:39+00",11.6,13.6,,67.2,-212,-473,7,1020.88,67.7,0
"2020-11-10 20:57:39+00",10.5,12.5,,67,-135,-429,-12,1020.85,67.4,0
"2020-11-10 21:02:39+00",9.9,10.9,,66.5,-126,-403,-5,1020.85,66.8,0
"2020-11-10 21:07:39+00",11.3,13.3,,66.1,-144,-477,-13,1020.77,66.4,0
"2020-11-10 21:12:39+00",10.1,12.1,,65.8,-153,-402,6,1020.83,66.1,0
"2020-11-10 21:17:39+00",10.4,12.4,,65.5,-110,-426,-21,1020.82,65.6,0
"2020-11-10 21:22:39+00",9.5,12.5,,65.2,-113,-417,-8,1020.76,65.3,0
"2020-11-10 21:27:39+00",9.8,11.8,,64.7,-103,-405,-6,1020.81,64.8,0
"2020-11-10 21:32:39+00",10.3,13.3,,64.2,-95,-424,-4,1020.82,64.2,0
"2020-11-10 21:37:39+00",11.0,13.0,,63.8,-126,-463,-5,1020.77,63.7,0
"2020-11-10 21:42:39+00",10.0,12.0,,63.5,-93,-421,-6,1020.77,63.4,0
"2020-11-10 21:47:39+00",9.5,11.5,,63.3,-88,-401,-1,1020.8,63.1,0
"2020-11-10 21:52:39+00",9.8,11.8,,63.1,-128,-404,2,1020.81,62.8,0
"2020-11-10 21:57:39+00",8.8,9.8,,62.9,-123,-357,9,1020.85,62.6,0
"2020-11-10 22:02:39+00",9.2,11.2,,62.7,-95,-374,-15,1020.9,62.4,0
"2020-11-10 22:07:39+00",6.8,9.8,,62.5,-54,-279,13,1020.96,62.2,0
"2020-11-10 22:12:39+00",7.8,9.8,,62.4,-81,-331,-4,1020.89,62,0
"2020-11-10 22:17:39+00",8.4,9.4,,62.4,-95,-351,-2,1020.87,61.9,0
"2020-11-10 22:22:39+00",8.3,10.3,,62.5,-89,-355,-4,1020.91,61.8,0
"2020-11-10 22:27:39+00",9.0,11.0,,62.6,-89,-383,-7,1020.92,61.9,0
"2020-11-10 22:32:39+00",8.7,10.7,,62.5,-80,-363,-5,1020.88,61.8,0
"2020-11-10 22:37:39+00",8.7,10.7,,62.6,-83,-369,-11,1020.96,61.8,0
"2020-11-10 22:42:39+00",8.3,9.3,,62.7,-81,-338,-4,1021.01,61.9,0
"2020-11-10 22:47:39+00",8.8,11.8,,62.8,-81,-369,-2,1020.99,62,0
"2020-11-10 22:52:39+00",9.0,12.0,,62.9,-44,-357,2,1021,62.1,0
"2020-11-10 22:57:39+00",8.5,10.5,,62.9,-52,-355,13,1021.03,62.2,0
"2020-11-10 23:02:39+00",8.9,10.9,,62.9,-67,-368,0,1021.08,62.3,0
"2020-11-10 23:07:39+00",8.0,10.0,,62.8,-52,-340,-9,1021.04,62.2,0
"2020-11-10 23:12:39+00",9.8,11.8,,62.8,-66,-404,-16,1021.14,62.3,0
"2020-11-10 23:17:39+00",8.0,11.0,,62.7,-80,-331,2,1021,62.2,0
"2020-11-10 23:22:39+00",7.2,9.2,,62.5,-52,-297,1,1021.03,61.9,0
"2020-11-10 23:27:39+00",8.8,9.8,,62.4,-95,-364,-6,1021.1,61.8,0
"2020-11-10 23:32:39+00",9.6,11.6,,62.6,-124,-395,-8,1021.07,61.7,0
"2020-11-10 23:37:39+00",8.2,10.2,,62.8,-147,-325,2,1021.16,61.9,0
"2020-11-10 23:42:39+00",9.5,11.5,,63,-172,-389,-2,1021.21,61.9,0
"2020-11-10 23:47:39+00",9.3,11.3,,63,-156,-364,0,1021.1,62,0
"2020-11-10 23:52:39+00",9.1,11.1,,63.1,-141,-367,-1,1021.05,62,0
"2020-11-10 23:57:39+00",9.3,10.3,,63.1,-139,-383,-1,1021.08,62.1,0
